Regional Weather Roundup
Issued by NWS Charleston, WV

Home | Current Version | Previous Version | Graphics & Text | Print | Product List | Glossary On
Versions: 1 2 3 4 5 6 7 8 9 10 11 12 13 14 15 16 17 18 19 20 21 22 23 24 25 26 27 28 29 30 31 32 33 34 35 36 37 38 39 40 41 42 43 44 45 46 47 48 49 50
000
ASUS41 KRLX 300210
RWRRLX
West Virginia Regional Weather Roundup
National Weather Service Charleston WV
1000 PM EDT WED JUL 29 2015

Note: "fair" indicates few or no clouds below 12,000 feet with no
significant weather and/or obstructions to visibility.

WVZ003-300300-
Northern Panhandle of West Virginia

CITY           SKY/WX    TMP DP  RH WIND       PRES   REMARKS
WHEELING       PTCLDY    78  72  81 S3        29.96R
$$

WVZ009-300300-
Northwest West Virginia

CITY           SKY/WX    TMP DP  RH WIND       PRES   REMARKS
PARKERSBURG    MOCLDY    78  74  87 CALM      29.98R FOG
$$

WVZ006-300300-
Western West Virginia

CITY           SKY/WX    TMP DP  RH WIND       PRES   REMARKS
HUNTINGTON     MOCLDY    80  75  84 W3        29.97R
$$

WVZ015-300300-
West Central West Virginia

CITY           SKY/WX    TMP DP  RH WIND       PRES   REMARKS
CHARLESTON     PTCLDY    75  73  93 CALM      29.98R
$$

WVZ022-031-300300-
North Central West Virginia

CITY           SKY/WX    TMP DP  RH WIND       PRES   REMARKS
CLARKSBURG     PTCLDY    76  74  93 CALM      29.98R
MORGANTOWN     CLEAR     81  69  67 CALM      29.99R
$$

WVZ025-035-042-045-300300-
Southern West Virginia

CITY           SKY/WX    TMP DP  RH WIND       PRES   REMARKS
BECKLEY        CLEAR     72  68  87 S5        30.09R
LOGAN            N/A     79  75  89 CALM      30.00R
BLUEFIELD      PTCLDY    75  67  76 W3        30.12R
LEWISBURG      CLOUDY    73  68  84 CALM      30.09R
$$

WVZ047-300300-
Northern Mountains of West Virginia

CITY           SKY/WX    TMP DP  RH WIND       PRES   REMARKS
ELKINS         PTCLDY    73  68  84 CALM      30.05R
$$

WVZ052-300300-
Eastern Panhandle of West Virginia

CITY           SKY/WX    TMP DP  RH WIND       PRES   REMARKS
MARTINSBURG    PTCLDY    79  74  84 SE6       29.95S
PETERSBURG     MOCLDY   N/A N/A N/A W3        29.99R
$$


USA.gov is the U.S. government's official web portal to all federal, state and local government web resources and services.